Airfield :
LOGIN :

Register | Disclaimer

   EN    FR    IT 

 










Legend :    VFR   Marginal VFR   IFR   Intensive IFR   Very Intensive IFR
Visi :
Ceiling :
>= 8 km
>= 3000ft
5 to 8 km
1000 to 3000 ft
1500m to 5 km
500 to 1000 ft
800 to 1500m
200 to 500 ft
< 800m
< 200 ft
Symbols :   Thunderstorms  Fog  Heavy snow  Heavy precipitations  Wind > 20 kt
SIGMETs :     Misc.  Thunderstorms  Icing  Turbulence  Mountain Waves  Volcanic Ashes







- Airport Elevation : 915 ft
- IATA code : LUG


LSZA - Lugano

CURRENT METAR :
  • 171120Z 02008KT CAVOK 07/M09 Q1020 NOSIG

EXPIRED METARs :
  • 171050Z 02006KT CAVOK 07/M09 Q1020 NOSIG
  • 171020Z 02006KT 360V080 CAVOK 06/M08 Q1020 NOSIG
  • 170950Z VRB02KT CAVOK 03/M04 Q1020 NOSIG
  • 170920Z VRB02KT CAVOK 02/M02 Q1020 NOSIG
  • 170850Z VRB02KT CAVOK 00/M03 Q1020 NOSIG

TAF TAF LSZA
Valid from the 17 at 12:00 until the 17 at 21:00 UTC


171125Z 1712/1721 02008KT CAVOK
PROB30
TEMPO 1712/1716 01015G25KT
ATIS : +41 22 417 40 88
No reported NOTAMs for that airfield.



MET'MAP, your aeronautical weather chart ! - Copyright ORBIFLY December 2007 - Disclaimer

ORBIFLY MET'MAP TEAM :

Programming & Development : Alexandra Zaïnal
Concept & Development : Baudouin d'Aumeries
Co-Development & Prog : Marc-Olivier Méhu
Technical & hardware support : Manuel Goepfert

Contact : metmap@orbifly.com




SOURCES & CREDITS :

   NOAA